Date,TemperatureHighF,TemperatureAvgF,TemperatureLowF,DewpointHighF,DewpointAvgF,DewpointLowF,HumidityHigh,HumidityAvg,HumidityLow,PressureMaxIn,PressureMinIn,WindSpeedMaxMPH,WindSpeedAvgMPH,GustSpeedMaxMPH,PrecipitationSumIn
2014-1-1,21,13,6,9,7,3,89,76,56,30.38,30.22,19,2,19,0.00
2014-1-2,12,6,-3,7,2,-6,89,86,79,30.37,29.92,18,4,18,0.00
2014-1-3,7,1,-7,2,-5,-12,87,77,66,30.39,29.81,18,4,20,0.00
2014-1-4,22,6,-9,10,-3,-14,83,69,51,30.47,30.27,12,2,12,0.00
2014-1-5,30,29,28,29,28,27,97,96,92,30.17,29.95,4,1,5,0.06
2014-1-6,49,35,25,49,33,18,99,94,72,29.95,29.27,18,3,21,0.73
2014-1-8,18,10,-1,5,0,-7,80,65,46,30.43,30.26,16,3,16,0.00
2014-1-9,23,12,4,10,4,0,88,72,47,30.63,30.40,15,2,15,0.00
2014-1-10,29,18,5,27,16,2,96,90,83,30.58,30.26,11,1,12,0.01
2014-1-11,51,39,25,50,38,23,99,98,93,30.27,29.21,12,2,13,0.23
2014-1-12,47,39,32,47,30,23,99,72,57,29.92,29.22,26,4,26,0.10
2014-1-13,46,36,24,34,28,23,94,75,48,30.08,29.84,12,2,12,0.00
2014-1-14,42,39,36,41,38,33,99,94,85,29.85,29.60,11,2,12,0.56
2014-1-15,42,34,28,37,32,28,99,90,70,29.97,29.73,11,2,11,0.00
2014-1-16,34,31,28,32,30,27,98,96,92,29.92,29.84,7,1,8,0.00
2014-1-17,38,32,27,32,28,22,99,84,53,29.94,29.87,14,2,14,0.01
2014-1-18,30,28,26,29,26,24,97,94,86,29.91,29.64,9,1,9,0.00
2014-1-19,28,27,25,28,24,20,98,88,77,29.70,29.49,19,2,19,0.00
2014-1-20,36,28,11,29,21,3,89,77,62,29.87,29.46,24,4,25,0.08
2014-1-21,11,6,2,4,-4,-7,78,63,49,30.06,29.87,12,2,12,0.00
2014-1-22,12,4,-3,-3,-7,-11,70,59,45,29.92,29.68,14,4,16,0.00
2014-1-23,15,6,-2,-3,-6,-10,72,58,42,30.13,29.88,17,3,17,0.00
2014-1-24,13,6,-2,-1,-6,-10,76,60,36,30.24,29.99,17,3,17,0.00
2014-1-25,30,19,8,22,10,-2,91,70,56,29.99,29.28,15,4,15,0.00
2014-1-26,19,14,8,15,0,-10,86,54,35,29.84,29.29,27,5,27,0.00
2014-1-27,36,21,14,33,10,-2,94,65,39,29.96,29.49,26,4,26,0.03
2014-1-28,16,10,4,1,-5,-11,75,52,33,30.28,29.96,19,3,19,0.00
2014-1-29,20,13,6,2,-4,-9,73,49,28,30.22,29.93,17,2,17,0.00
2014-1-30,26,15,2,8,3,-3,82,60,43,30.41,30.14,15,2,15,0.00
2014-1-31,36,25,14,20,14,5,87,65,39,30.17,29.99,14,2,14,0.04
2014-2-1,40,31,23,28,22,18,84,70,49,30.33,29.99,14,2,14,0.06
2014-2-2,44,34,28,37,31,26,96,89,70,30.05,29.83,8,1,10,0.02
2014-2-3,34,28,22,31,20,15,90,74,58,30.28,30.05,11,2,11,0.00
2014-2-4,31,24,15,17,14,11,86,65,44,30.45,30.27,9,1,10,0.00
2014-2-5,26,22,19,20,18,12,93,86,58,30.32,29.67,14,3,16,0.00
2014-2-6,22,15,8,18,9,4,93,78,56,30.25,29.94,12,2,16,0.19
2014-2-7,26,16,3,12,6,0,89,66,48,30.22,30.11,16,3,17,0.04
2014-2-8,26,17,3,11,4,-2,77,56,37,30.25,30.12,13,2,14,0.01
2014-2-9,27,21,15,20,12,6,92,70,51,30.17,29.93,11,2,12,0.00
2014-2-10,24,16,5,18,9,2,94,76,50,30.19,29.88,17,2,20,0.00
2014-2-11,20,10,0,6,1,-4,90,68,48,30.44,30.18,19,3,19,0.00
2014-2-12,27,12,-3,3,-3,-8,81,53,28,30.55,30.41,13,2,13,0.01
2014-2-13,30,19,9,29,16,-1,97,86,61,30.41,29.10,21,4,21,0.00
2014-2-14,31,28,21,30,26,19,98,93,87,29.70,28.86,18,4,18,0.00
2014-2-15,28,24,17,26,22,16,96,93,88,29.85,29.52,17,2,18,0.00
2014-2-16,26,20,13,24,11,-1,92,68,52,29.99,29.52,22,5,24,0.00
2014-2-17,22,14,4,1,-3,-5,69,47,31,30.36,29.99,23,4,23,0.00
2014-2-18,22,12,2,21,7,-6,94,82,64,30.36,29.97,10,2,10,0.00
2014-2-19,29,23,13,26,21,11,96,91,77,30.09,29.76,8,1,9,0.00
2014-2-20,45,34,24,31,27,23,97,80,43,30.20,29.82,15,2,25,0.59
2014-2-21,35,32,30,35,32,29,98,98,97,30.13,29.67,9,1,13,1.10
2014-2-22,47,37,27,35,26,20,98,69,40,29.92,29.79,22,3,22,0.12
2014-2-23,46,37,27,28,24,17,81,60,35,29.95,29.75,15,2,17,0.00
2014-2-24,34,27,17,25,11,6,73,52,38,29.91,29.71,26,5,26,0.00
2014-2-25,25,16,9,7,4,1,81,59,40,29.94,29.85,20,3,23,0.00
2014-2-26,26,13,2,12,1,-6,88,62,30,29.91,29.74,28,4,29,0.00
2014-2-27,23,12,1,12,1,-5,84,61,36,29.89,29.57,23,3,26,0.00
2014-2-28,18,10,0,1,-8,-13,67,44,25,30.44,29.88,22,4,26,0.00
2014-3-1,30,18,-1,15,2,-9,72,52,34,30.45,30.06,18,2,18,0.00
2014-3-2,33,27,18,22,16,8,80,63,55,30.06,29.95,13,2,15,0.00
2014-3-3,19,13,3,8,-2,-9,66,52,33,30.29,30.00,16,3,17,0.00
2014-3-4,28,16,-2,13,-2,-9,81,48,24,30.37,30.23,11,2,12,0.00
2014-3-5,21,17,9,16,11,-2,89,79,61,30.51,30.25,12,2,14,0.00
2014-3-6,27,13,-2,3,-6,-12,71,44,19,30.64,30.51,8,2,9,0.02
2014-3-7,34,20,2,18,7,-6,78,56,36,30.51,29.96,13,2,14,0.00
2014-3-8,48,32,16,26,20,12,86,65,38,29.96,29.69,16,2,16,0.00
2014-3-9,34,27,22,14,10,3,65,49,28,29.93,29.85,20,3,20,0.00
2014-3-10,38,30,22,28,21,10,93,71,53,29.86,29.59,10,2,12,0.01
2014-3-11,51,38,26,36,29,24,96,72,39,29.71,29.47,16,2,16,0.05
2014-3-12,35,34,32,34,31,28,98,91,76,29.71,29.04,13,2,16,0.66
2014-3-13,32,15,10,31,9,-2,96,77,54,29.92,29.03,23,5,28,0.00
2014-3-14,33,21,5,21,8,-4,77,57,44,30.14,29.86,14,3,16,0.03
2014-3-15,51,39,30,34,28,21,91,66,45,29.86,29.63,26,4,30,0.04
2014-3-16,31,24,14,22,6,-3,78,48,29,30.20,29.83,20,4,24,0.00
2014-3-17,26,16,8,3,-4,-7,54,41,26,30.20,30.05,14,3,15,0.00
2014-3-18,37,21,6,16,2,-5,76,46,17,30.35,30.16,11,2,11,0.00
2014-3-19,39,28,15,28,21,13,95,75,51,30.39,30.00,14,3,16,0.00
2014-3-20,44,36,30,39,30,24,98,81,52,30.02,29.58,19,4,23,0.56
2014-3-21,37,33,26,26,21,18,76,62,49,29.99,29.69,21,4,22,0.00
2014-3-22,47,31,20,35,23,17,90,72,51,30.03,29.63,23,3,28,0.01
2014-3-23,36,29,14,24,14,-3,85,55,30,30.10,29.89,21,4,25,0.00
2014-3-24,27,17,9,5,-1,-3,68,46,28,30.15,30.03,19,3,20,0.00
2014-3-25,33,22,9,16,9,4,81,59,37,30.13,29.96,15,2,17,0.00
2014-3-26,29,25,21,17,11,3,73,56,36,29.96,29.64,28,6,32,0.00
2014-3-27,40,30,14,17,6,-2,60,38,22,30.31,30.01,17,3,17,0.00
2014-3-28,44,38,31,43,32,13,97,79,43,30.19,29.90,18,3,18,0.10
2014-3-29,46,40,34,43,36,33,98,86,68,30.25,30.00,13,3,17,0.33
2014-3-30,36,34,33,34,33,32,98,96,92,30.03,29.67,17,5,24,1.03
2014-3-31,39,34,30,34,30,26,97,88,70,30.03,29.72,17,3,17,0.79
2014-4-1,52,40,27,32,27,24,87,64,40,30.09,30.00,15,2,15,0.02
2014-4-2,55,40,28,36,30,21,93,70,43,30.10,29.99,11,2,13,0.00
2014-4-3,48,38,29,29,24,21,95,58,36,30.13,30.02,18,3,18,0.00
2014-4-4,47,36,27,32,26,20,96,69,43,30.16,29.91,14,3,17,0.27
2014-4-5,46,37,32,40,30,22,98,80,52,29.91,29.68,25,4,28,0.18
2014-4-6,52,39,30,24,21,16,69,50,26,30.16,29.90,23,4,23,0.00
2014-4-7,56,44,30,35,26,18,90,52,30,30.22,29.91,13,3,15,0.05
2014-4-8,60,46,37,53,42,31,98,89,69,29.91,29.26,21,3,21,0.42
2014-4-9,49,41,31,36,26,9,93,58,28,29.94,29.47,22,4,22,0.00
2014-4-10,60,44,24,30,23,14,81,46,19,30.11,29.92,21,4,28,0.00
2014-4-11,70,55,43,43,37,28,85,53,26,30.00,29.87,20,3,20,0.01
2014-4-12,65,51,38,41,34,27,94,57,26,30.18,29.95,22,3,22,0.00
2014-4-13,50,44,38,42,36,28,95,76,48,30.27,30.01,10,2,11,0.06
2014-4-14,76,58,35,58,47,34,98,70,36,30.02,29.79,26,6,30,0.00
2014-4-15,62,57,35,59,54,33,96,89,76,29.81,29.47,27,7,27,0.54
2014-4-16,36,30,22,33,20,13,96,69,43,30.62,29.69,21,4,23,0.25
2014-4-17,43,31,19,24,18,13,87,61,31,30.82,30.61,16,3,16,0.00
2014-4-18,45,34,21,31,27,20,94,75,52,30.67,30.24,13,2,15,0.00
2014-4-19,55,42,28,36,29,24,96,65,38,30.41,30.14,17,3,20,0.00
2014-4-20,58,43,28,30,22,15,84,47,21,30.50,30.30,13,3,14,0.00
2014-4-21,72,51,29,32,25,14,86,45,12,30.30,29.79,16,3,16,0.00
2014-4-22,75,58,44,51,39,26,92,53,26,29.79,29.42,14,2,14,0.03
2014-4-23,52,46,42,50,40,30,97,79,62,29.61,29.39,24,4,31,0.02
2014-4-24,52,44,35,31,25,20,65,48,34,29.92,29.60,28,7,33,0.00
2014-4-25,62,50,35,33,25,16,69,42,17,29.99,29.78,16,2,17,0.00
2014-4-26,48,41,38,40,36,30,97,85,54,29.85,29.74,11,2,11,0.21
2014-4-27,47,41,36,43,38,34,98,89,71,30.05,29.83,13,2,14,0.17
2014-4-28,55,46,36,42,37,33,90,71,50,30.23,29.99,15,3,16,0.01
2014-4-29,45,40,36,39,34,32,93,78,63,30.53,30.22,18,4,20,0.00
2014-4-30,41,38,36,38,36,34,98,94,84,30.54,30.19,13,2,13,0.56
2014-5-1,62,47,37,55,45,37,99,94,75,30.20,29.65,10,2,10,0.60
2014-5-2,62,52,41,52,41,36,98,70,40,29.78,29.64,17,3,22,0.00
2014-5-3,63,52,40,46,41,36,92,70,43,29.83,29.68,15,2,17,0.00
2014-5-4,55,49,43,46,39,35,97,71,51,29.69,29.49,27,5,29,0.04
2014-5-5,58,50,43,44,40,37,88,70,50,29.85,29.59,20,4,21,0.00
2014-5-6,60,49,37,40,32,23,94,56,28,30.03,29.82,21,3,24,0.00
2014-5-7,65,52,37,36,29,22,76,45,20,30.16,30.03,14,3,17,0.00
2014-5-8,71,55,37,40,33,23,78,46,18,30.18,30.03,9,2,13,0.00
2014-5-9,51,48,45,46,41,34,98,80,55,30.23,30.06,8,1,9,0.03
2014-5-10,76,61,46,64,54,46,99,81,49,30.07,29.70,15,2,17,0.05
2014-5-11,76,65,55,56,39,27,87,42,17,30.00,29.75,22,4,23,0.00
2014-5-12,83,67,47,48,42,37,79,45,21,30.11,29.94,17,3,20,0.00
2014-5-13,56,49,46,45,42,39,83,76,59,30.31,30.10,14,2,16,0.00
2014-5-14,71,56,44,50,43,38,89,66,40,30.32,30.20,12,2,14,0.00
2014-5-15,76,62,48,63,56,46,94,82,61,30.26,30.15,15,3,16,0.00
2014-5-16,67,62,60,63,60,58,99,94,80,30.15,29.91,16,4,16,0.40
2014-5-17,71,61,44,62,50,32,99,73,28,30.04,29.78,17,3,18,0.68
2014-5-18,67,55,44,44,37,30,86,54,29,30.10,30.00,14,3,17,0.00
2014-5-19,64,52,44,45,38,32,86,59,35,30.08,30.00,25,3,26,0.00
2014-5-20,71,59,48,44,40,36,85,53,30,30.01,29.92,20,4,26,0.00
2014-5-21,74,59,43,54,47,41,96,67,31,29.98,29.87,12,2,16,0.00
2014-5-22,60,53,46,57,51,45,98,92,73,29.92,29.83,9,1,11,0.43
2014-5-23,53,50,48,52,50,47,99,98,97,29.99,29.85,9,1,11,0.45
2014-5-24,65,54,48,56,51,48,99,92,61,30.05,29.95,13,1,17,0.20
2014-5-25,72,57,48,58,52,47,99,86,55,30.07,29.95,9,1,11,0.02
2014-5-27,50,45,43,48,44,43,97,96,92,29.96,29.88,9,2,13,0.18
2014-5-28,49,46,44,47,44,42,98,96,90,30.23,29.93,10,2,11,0.02
2014-5-29,66,52,38,50,42,37,99,72,40,30.26,30.11,10,2,10,0.00
2014-5-30,70,54,41,57,47,39,98,80,41,30.12,29.97,11,1,14,0.10
2014-5-31,65,54,44,56,50,43,98,85,63,30.29,30.04,11,2,13,0.02
2014-6-1,75,60,42,55,46,38,99,65,30,30.34,30.19,8,2,10,0.01
2014-6-2,82,66,46,58,50,43,94,62,28,30.19,29.95,12,2,15,0.00
2014-6-3,82,67,53,63,55,49,97,69,39,29.98,29.85,15,2,16,0.00
2014-6-4,64,57,53,58,53,49,95,86,78,29.87,29.75,7,1,8,0.01
2014-6-5,61,55,51,59,54,50,99,96,87,29.77,29.65,8,1,8,0.07
2014-6-6,71,62,53,58,54,51,99,78,54,29.87,29.67,15,2,17,0.08
2014-6-7,79,68,55,59,55,51,88,65,42,29.92,29.84,12,2,14,0.00
2014-6-8,83,69,53,62,55,49,93,65,32,29.93,29.82,7,1,11,0.00
2014-6-9,83,68,59,65,59,55,91,74,39,29.94,29.85,9,2,11,0.00
2014-6-10,74,65,59,66,60,53,96,82,69,30.09,29.91,10,2,13,0.00
2014-6-11,71,59,49,57,53,47,97,80,46,30.17,30.09,13,1,14,0.01
2014-6-12,64,57,53,58,54,49,98,89,80,30.16,30.05,10,1,12,0.05
2014-6-13,58,56,55,58,56,54,99,98,97,30.05,29.80,10,2,12,0.34
2014-6-14,72,61,55,63,57,50,99,85,63,29.91,29.79,12,2,13,0.01
2014-6-15,73,63,54,58,52,47,91,69,47,30.06,29.89,17,3,19,0.00
2014-6-16,80,65,52,59,50,43,91,62,29,30.13,29.98,10,1,10,0.00
2014-6-17,85,72,59,70,61,55,89,70,48,30.02,29.77,13,1,13,0.00
2014-6-18,77,71,63,67,62,57,96,75,53,29.91,29.65,18,3,22,0.17
2014-6-19,77,68,56,62,52,40,93,62,31,29.96,29.89,15,2,18,0.00
2014-6-20,70,60,50,50,44,39,80,58,33,29.96,29.87,17,3,18,0.00
2014-6-21,69,58,45,51,45,42,93,66,43,29.96,29.87,12,2,15,0.00
2014-6-22,74,61,45,55,48,42,94,67,36,30.03,29.92,9,1,11,0.00
2014-6-23,80,65,48,60,53,46,98,69,39,30.12,30.02,9,2,10,0.00
2014-6-24,79,67,54,65,57,51,92,72,49,30.11,29.94,14,2,15,0.01
2014-6-25,85,72,63,72,64,55,98,77,58,29.95,29.81,11,2,13,1.22
2014-6-26,72,67,60,69,65,60,99,94,81,29.99,29.75,12,1,12,0.49
2014-6-27,77,66,56,62,57,50,99,76,41,30.19,29.99,9,1,10,0.01
2014-6-28,82,68,52,64,55,48,98,66,31,30.25,30.18,8,1,8,0.00
2014-6-29,84,71,56,66,60,50,96,69,40,30.23,30.03,9,2,11,0.00
2014-6-30,86,74,58,69,64,56,96,72,49,30.04,29.86,13,2,14,0.00
2014-7-1,87,77,63,73,68,61,97,76,55,29.88,29.72,14,2,16,0.00
2014-7-2,89,75,66,78,70,65,98,84,62,29.89,29.75,12,2,15,0.53
2014-7-3,83,72,64,75,69,64,99,92,73,30.00,29.84,16,1,16,1.34
2014-7-4,67,64,58,67,64,57,99,98,96,29.96,29.81,11,1,13,0.97
2014-7-5,75,64,55,57,52,43,97,68,40,29.98,29.77,21,3,21,0.12
2014-7-6,81,69,55,60,55,49,89,63,37,29.95,29.82,17,2,18,0.00
2014-7-7,83,72,62,72,64,57,98,78,55,29.82,29.65,15,2,20,0.25
2014-7-8,85,75,64,74,69,64,99,82,63,29.74,29.59,16,2,16,0.05
2014-7-9,82,72,63,69,64,60,97,79,51,29.90,29.60,16,3,23,0.21
2014-7-10,77,68,57,62,58,52,98,73,44,30.13,29.89,12,2,13,0.00
2014-7-11,77,65,54,64,57,52,97,77,49,30.22,30.13,7,1,7,0.00
2014-7-12,82,70,53,67,59,52,99,73,45,30.20,30.07,8,1,10,0.00
2014-7-13,84,72,64,72,65,58,96,79,61,30.07,29.83,18,3,20,0.22
2014-7-14,85,75,67,73,69,66,99,82,54,29.87,29.79,8,1,9,0.00
2014-7-15,84,73,68,75,70,67,99,93,71,29.83,29.71,11,1,11,0.47
2014-7-16,74,68,61,70,67,60,99,95,83,29.83,29.70,10,1,12,0.79
2014-7-17,77,66,57,64,58,54,96,77,46,30.05,29.82,10,1,11,0.00
2014-7-18,77,65,52,64,56,51,99,77,44,30.21,30.05,10,1,11,0.00
2014-7-19,76,63,53,66,58,52,99,86,60,30.26,30.19,4,1,5,0.00
2014-7-20,76,64,56,63,58,53,99,81,45,30.21,30.12,9,1,10,0.00
2014-7-21,79,67,52,64,58,51,99,75,46,30.19,30.10,6,1,8,0.00
2014-7-22,85,72,58,74,66,56,98,81,55,30.13,29.92,9,1,9,0.00
2014-7-23,88,77,67,76,70,66,96,79,58,29.93,29.67,18,2,18,0.66
2014-7-24,76,68,57,67,61,52,98,81,52,29.89,29.71,10,2,11,0.04
2014-7-25,78,65,51,65,57,49,95,77,49,29.97,29.89,10,1,12,0.00
2014-7-26,80,67,56,67,59,55,98,78,46,29.94,29.82,16,2,16,0.00
2014-7-27,73,67,60,71,65,58,99,94,86,29.86,29.62,16,1,16,0.19
2014-7-28,79,68,62,74,66,61,100,95,72,29.64,29.39,16,2,16,0.84
2014-7-29,73,64,58,61,57,53,97,79,51,29.92,29.51,13,2,15,0.00
2014-7-30,73,62,54,64,57,53,97,85,53,30.02,29.92,6,0,7,0.00
2014-7-31,76,63,51,67,58,50,99,86,59,30.14,30.01,12,1,19,0.12
2014-8-1,80,65,55,74,62,54,99,93,66,30.19,30.13,8,1,9,0.02
2014-8-2,74,66,55,68,62,54,99,86,66,30.20,30.10,9,1,9,0.00
2014-8-3,73,63,53,66,60,52,99,89,73,30.12,30.02,6,0,7,0.00
2014-8-4,81,69,57,69,64,56,99,85,59,30.03,29.96,8,1,8,0.00
2014-8-5,83,70,60,71,64,59,99,83,50,30.00,29.86,11,1,11,0.00
2014-8-6,77,68,60,66,60,54,97,78,45,29.86,29.76,12,2,14,0.05
2014-8-7,73,62,53,61,55,51,93,79,59,29.92,29.82,13,2,14,0.00
2014-8-8,56,56,56,53,53,53,92,90,89,29.93,29.92,5,1,5,0.00
2014-8-10,82,72,55,65,60,53,97,68,39,30.11,30.05,7,1,8,0.00
2014-8-11,84,70,55,68,62,54,99,78,49,30.12,30.04,7,1,7,0.00
2014-8-12,80,68,57,66,61,56,99,80,51,30.09,29.99,12,1,12,0.00
2014-8-13,65,62,59,63,61,58,99,96,90,29.99,29.61,16,3,21,2.34
2014-8-14,70,60,52,58,54,48,99,82,50,29.83,29.65,11,2,14,0.00
2014-8-15,65,60,57,55,53,51,89,77,62,29.90,29.84,10,2,12,0.00
2014-8-16,73,62,50,59,54,49,96,77,49,29.94,29.86,13,2,14,0.00
2014-8-17,73,62,54,64,57,52,97,83,62,29.88,29.76,17,2,17,0.01
2014-8-18,71,60,52,57,52,49,97,76,49,29.87,29.77,14,2,18,0.00
2014-8-19,74,61,47,59,53,46,98,76,47,29.95,29.85,10,1,10,0.00
2014-8-20,79,64,50,64,56,48,99,78,46,30.05,29.95,8,1,8,0.00
2014-8-21,64,57,52,61,55,51,98,93,81,30.10,30.03,4,0,5,0.48
2014-8-22,65,59,54,63,58,54,99,96,87,30.11,30.08,10,1,10,0.49
2014-8-23,70,62,54,62,58,54,99,87,67,30.13,30.09,8,1,11,0.00
2014-8-24,77,64,51,64,58,50,99,82,51,30.14,30.09,9,1,9,0.00
2014-8-25,84,69,57,69,61,55,98,80,46,30.15,30.07,8,1,8,0.00
2014-8-26,86,71,56,70,62,55,99,78,45,30.13,29.98,9,1,13,0.00
2014-8-27,85,73,61,72,67,60,98,81,57,29.98,29.81,11,2,13,0.00
2014-8-28,73,66,56,65,55,48,88,70,49,29.98,29.78,17,2,17,0.00
2014-8-29,75,62,51,60,54,48,94,76,49,30.24,29.98,9,1,9,0.00
2014-8-30,76,62,49,62,56,48,99,81,53,30.27,30.08,13,2,14,0.00
2014-8-31,83,71,59,73,67,58,98,87,68,30.08,29.90,11,2,14,0.02
2014-9-1,84,73,64,72,67,63,99,84,57,29.95,29.87,8,1,9,0.01
2014-9-2,87,72,63,76,69,62,99,90,61,29.90,29.66,11,1,11,0.03
2014-9-3,77,69,59,71,62,56,97,80,51,30.06,29.66,14,2,15,0.08
2014-9-4,81,67,54,66,60,53,99,79,45,30.17,30.05,10,1,13,0.00
2014-9-5,86,73,59,73,66,58,98,80,55,30.12,29.91,14,2,16,0.00
2014-9-6,86,73,62,74,68,58,96,85,64,29.92,29.71,16,2,18,0.00
2014-9-7,72,62,53,59,54,47,97,77,43,30.20,29.88,14,1,14,0.05
2014-9-8,73,59,47,56,51,46,98,77,48,30.37,30.21,9,1,9,0.00
2014-9-9,69,56,45,56,50,44,98,82,53,30.37,30.20,10,1,11,0.00
2014-9-10,68,58,52,60,55,50,98,91,67,30.21,30.02,7,1,7,0.00
2014-9-11,68,62,54,66,61,54,99,95,83,30.02,29.73,12,2,14,0.06
2014-9-12,65,56,45,55,48,42,97,76,57,30.24,29.88,13,2,15,0.00
2014-9-13,55,50,41,52,47,39,98,91,82,30.30,30.10,8,1,8,0.15
2014-9-14,59,50,41,50,44,39,99,81,59,30.24,30.10,18,2,18,0.01
2014-9-15,63,50,36,49,42,35,98,80,42,30.24,30.07,8,1,8,0.00
2014-9-16,61,51,47,57,50,45,98,95,80,30.09,29.93,7,0,7,0.07
2014-9-17,68,53,43,53,48,42,99,83,47,30.01,29.92,9,1,9,0.01
2014-9-18,68,53,40,53,46,38,99,79,52,30.16,29.91,12,2,12,0.00
2014-9-19,56,44,35,39,34,30,95,70,38,30.40,30.15,10,1,10,0.00
2014-9-20,66,52,35,58,47,33,97,84,69,30.38,30.06,15,2,15,0.00
2014-9-21,74,64,52,71,62,50,99,95,85,30.06,29.52,9,1,11,0.05
2014-9-22,67,60,44,65,50,37,98,72,47,30.05,29.49,22,3,22,0.00
2014-9-23,67,53,41,51,44,38,94,72,43,30.42,30.05,13,2,16,0.00
2014-9-24,67,54,42,54,48,41,99,83,55,30.63,30.41,11,1,12,0.00
2014-9-25,61,50,42,54,47,41,99,90,66,30.55,30.25,4,0,6,0.00
2014-9-26,73,60,45,60,53,44,98,81,56,30.25,30.13,9,2,11,0.01
2014-9-27,80,65,53,64,58,52,97,80,53,30.17,30.10,9,1,9,0.00
2014-9-28,84,67,55,66,60,54,99,82,48,30.14,29.94,8,1,9,0.00
2014-9-29,73,62,53,63,57,52,98,87,62,30.02,29.92,10,2,13,0.00
2014-9-30,58,55,53,56,54,52,99,96,90,30.04,29.99,7,1,8,0.02
2014-10-1,55,54,53,54,53,53,99,98,94,30.13,30.02,12,2,12,0.33
2014-10-2,60,52,44,55,51,44,99,94,81,30.18,30.12,10,1,10,0.02
2014-10-3,65,51,40,52,46,40,99,86,54,30.16,29.90,10,1,10,0.01
2014-10-4,58,54,49,58,54,48,99,99,97,29.90,29.51,15,2,19,0.25
2014-10-5,58,49,38,57,44,36,99,84,46,29.93,29.53,17,2,17,0.01
2014-10-6,63,47,34,47,40,33,99,79,46,30.14,29.93,13,2,14,0.00
2014-10-7,67,57,46,61,54,45,99,89,68,30.13,29.94,12,3,17,0.03
2014-10-8,68,58,48,60,52,39,97,81,50,29.94,29.66,14,3,17,0.13
2014-10-9,60,48,37,41,38,32,94,70,37,29.96,29.82,11,2,17,0.00
2014-10-10,58,46,35,42,37,34,97,75,45,30.13,29.95,10,2,12,0.00
2014-10-11,52,42,37,45,40,36,97,91,68,30.13,30.05,6,1,8,0.01
2014-10-12,56,44,34,44,38,33,98,81,50,30.29,30.13,11,2,11,0.00
2014-10-13,58,47,32,50,43,31,99,85,63,30.34,30.23,8,1,11,0.00
2014-10-14,72,61,52,64,57,50,98,89,72,30.23,30.11,11,2,14,0.00
2014-10-15,77,66,58,67,62,57,99,89,68,30.12,29.94,16,2,16,0.00
2014-10-16,67,65,60,67,64,59,99,98,94,29.94,29.61,13,3,13,2.40
2014-10-17,67,59,51,59,54,49,99,85,56,29.64,29.56,22,2,22,0.01
2014-10-18,64,55,50,58,52,46,99,89,73,29.62,29.47,14,2,14,0.00
2014-10-19,51,44,36,48,35,26,90,72,55,29.93,29.56,21,4,21,0.00
2014-10-20,52,41,29,40,32,24,89,71,49,30.03,29.93,17,2,17,0.00
2014-10-21,51,46,40,50,44,39,97,94,84,30.03,29.94,13,2,13,0.06
2014-10-22,47,45,44,46,45,44,98,97,96,30.09,29.89,29,6,29,0.22
2014-10-23,48,46,44,48,45,43,99,97,93,29.89,29.69,22,6,22,1.30
2014-10-24,47,45,43,46,44,41,98,93,86,29.74,29.68,17,3,17,0.04
2014-10-25,62,50,38,46,42,35,95,76,37,29.74,29.46,13,2,13,0.00
2014-10-26,52,46,41,45,40,36,95,80,64,29.67,29.39,20,2,20,0.00
2014-10-27,56,45,38,41,38,36,94,78,53,30.02,29.66,19,2,19,0.00
2014-10-28,59,46,37,50,42,36,98,86,64,30.07,29.93,9,1,9,0.00
2014-10-29,58,49,42,55,48,41,99,94,72,29.93,29.78,15,1,15,0.06
2014-10-30,51,42,35,43,38,34,99,88,66,30.00,29.85,11,2,11,0.01
2014-10-31,47,41,34,37,35,32,95,82,63,30.05,29.99,8,1,8,0.00
2014-11-1,39,37,34,38,35,31,97,92,83,29.99,29.86,16,3,16,0.28
2014-11-2,37,35,34,34,26,14,93,70,42,29.89,29.67,29,6,29,0.00
2014-11-3,47,37,30,29,18,9,75,48,22,30.06,29.81,19,3,19,0.00
2014-11-4,54,43,32,39,34,27,86,71,48,30.12,29.97,7,1,7,0.00
2014-11-5,60,47,36,45,35,27,88,67,34,30.10,29.91,21,2,21,0.00
2014-11-6,45,41,37,41,38,32,98,88,70,30.10,29.53,8,1,8,0.24
2014-11-7,42,38,34,41,34,23,98,84,65,29.78,29.46,25,4,25,0.03
2014-11-8,43,36,28,29,24,21,79,63,45,29.93,29.77,21,3,21,0.00
2014-11-9,50,40,31,35,31,28,88,70,53,30.00,29.84,15,2,15,0.00
2014-11-10,53,40,30,38,32,27,95,77,50,30.19,30.00,13,2,13,0.00
2014-11-11,57,44,32,49,41,31,98,88,70,30.18,29.96,14,1,14,0.00
2014-11-12,60,49,37,54,46,29,99,90,70,29.99,29.80,14,2,14,0.03
2014-11-13,43,37,29,32,28,25,94,70,49,30.06,29.95,10,1,12,0.03
2014-11-14,38,32,26,31,25,16,96,77,44,30.08,29.89,11,2,17,0.04
2014-11-15,34,26,20,19,16,11,84,65,40,30.33,30.08,15,2,15,0.00
2014-11-16,38,30,20,25,21,15,89,70,50,30.35,30.10,14,2,14,0.00
2014-11-17,33,32,30,32,30,23,98,93,69,30.10,29.43,7,1,7,0.85
2014-11-18,36,27,20,35,17,4,99,67,42,29.85,29.44,26,5,26,0.02
2014-11-19,31,24,19,14,9,6,65,53,42,30.10,29.85,20,4,20,0.00
2014-11-20,39,29,22,21,16,12,74,59,46,30.02,29.74,20,3,20,0.00
2014-11-21,29,24,18,14,10,5,71,56,43,30.38,29.89,25,4,25,0.00
2014-11-22,36,27,15,21,13,8,82,56,36,30.40,30.02,15,3,15,0.00
2014-11-23,55,43,32,42,36,21,94,74,58,30.12,30.02,15,2,15,0.00
2014-11-24,63,52,38,59,49,33,99,89,79,30.06,29.51,25,4,25,0.42
2014-11-25,59,50,35,54,38,25,89,65,38,30.08,29.63,19,3,19,0.00
2014-11-26,37,33,30,30,29,26,98,86,66,30.19,29.74,18,2,18,0.00
2014-11-27,31,28,24,30,26,23,98,94,90,30.02,29.73,15,2,15,0.00
2014-11-28,29,23,12,24,20,10,95,89,77,30.20,30.00,13,2,13,0.04
2014-11-29,27,19,10,21,15,8,93,85,67,30.33,30.20,10,2,10,0.01
2014-11-30,42,34,22,38,31,19,95,89,82,30.24,29.98,15,2,15,0.85
2014-12-1,54,42,32,46,36,23,93,80,70,30.44,29.95,20,3,20,0.11
2014-12-2,32,27,22,25,20,13,95,74,58,30.71,30.43,15,3,15,0.00
2014-12-3,37,31,26,36,30,24,99,95,81,30.43,29.85,15,2,15,0.04
2014-12-4,35,29,19,28,21,14,87,73,52,30.56,30.05,21,2,21,0.02
2014-12-5,29,22,14,23,17,10,94,81,70,30.70,30.47,9,1,9,0.00
2014-12-6,33,31,25,33,30,23,98,97,94,30.47,30.14,12,1,12,0.01
2014-12-7,33,24,10,32,14,1,95,67,44,30.72,30.26,24,4,24,0.00
2014-12-8,21,14,6,18,8,0,88,75,56,30.81,30.56,10,2,10,0.00
2014-12-9,36,29,21,35,28,18,98,95,88,30.56,29.61,26,4,26,0.14
2014-12-10,35,34,33,35,34,33,98,98,97,29.62,29.43,16,3,16,0.48
2014-12-11,34,31,28,33,31,28,99,97,96,29.75,29.42,9,2,9,0.13
2014-12-12,34,29,26,30,27,25,97,91,83,29.88,29.75,10,2,12,0.04
2014-12-13,35,30,27,28,26,24,88,83,73,29.86,29.77,11,3,22,0.01
2014-12-14,37,31,28,29,27,24,90,84,73,29.91,29.77,15,3,15,0.00
2014-12-15,36,30,24,28,26,22,95,84,68,30.15,29.90,16,2,16,0.00
2014-12-16,34,30,26,32,28,24,98,93,88,30.16,29.94,4,0,4,0.05
2014-12-17,41,36,31,40,35,31,99,97,91,29.94,29.69,13,2,13,0.60
2014-12-18,37,34,30,33,30,25,97,86,76,29.85,29.68,18,3,18,0.04